Location: La Fredeussais
(48.1780°N, 1.3980°W)
Time: 11:54:15
(UTC+00:00)

PRISM - Pass Details

Date: 28 October 2021
Orbit: 561 x 584 km, 98.2° (Epoch: 29 November)

Event Time Altitude Azimuth Distance (km) Brightness Sun altitude
Rises 03:45:57 0° 18° (NNE) 2,799 ? -30.2°
Reaches altitude 10° 03:48:10 10° 24° (NNE) 1,891 ? -29.8°
Enters shadow 03:50:32 31° 43° (NE) 1,026 ? -29.5°
